Weather History for KVPZ - November, 2011

Change the Weather History Date:

Thursday, November 10, 2011

  Actual Average Record
Temperature  
Mean Temperature 36 °F 44 °F  
Max Temperature 39 °F 52 °F 72 °F (2012)
Min Temperature 32 °F 35 °F 23 °F (2003)
Degree Days  
Heating Degree Days 30 22  
Month to date heating degree days 197  
Since 1 July heating degree days 727  
Cooling Degree Days 0 0  
Month to date cooling degree days 0  
Year to date cooling degree days 713  
Moisture  
Dew Point 29 °F    
Average Humidity 79    
Maximum Humidity 92    
Minimum Humidity 65    
Precipitation  
Precipitation 0.00 in 0.11 in 0.58 in (1998)
Month to date precipitation 1.25  
Year to date precipitation 33.25  
Sea Level Pressure  
Sea Level Pressure 30.00 in    
Wind  
Wind Speed 12 mph (West)    
Max Wind Speed 21 mph    
Max Gust Speed 29 mph    
Visibility 10 miles    
Events      
T = Trace of Precipitation, MM = Missing Value Source: NWS Daily Summary

Daily Weather History Graph

Daily Weather History Graph

Search for Another Location

Airport or City:

Trip Planner

Search our weather history database for the weather conditions in past years. The results will help you decide how hot, cold, wet, or windy it might be!

Date:

Astronomy

Nov. 10, 2011 Rise Set
Actual Time 6:30 AM CST 4:33 PM CST
Civil Twilight 6:00 AM CST 5:02 PM CST
Nautical Twilight 5:27 AM CST 5:35 PM CST
Astronomical Twilight 4:55 AM CST 6:08 PM CST
Moon 4:19 PM CST (11/10) 6:22 AM CST (11/10)
Length of Visible Light 11h 01m
Length of Day
10h 02m
Full, 100% of the Moon is Illuminated
Nov 10
Full
Nov 10
Full
Nov 18
Last Quarter
Nov 25
New
Dec 2
First Quarter

Hourly Weather History & Observations

Time (CST) Temp. Windchill Dew Point Humidity Pressure Visibility Wind Dir Wind Speed Gust Speed Precip Events Conditions
12:53 AM 34.0 °F 27.2 °F 30.9 °F 89% 30.00 in 10.0 mi WSW 8.1 mph - N/A   Clear
1:53 AM 34.0 °F 26.0 °F 30.9 °F 89% 30.00 in 10.0 mi SW 10.4 mph - N/A   Clear
2:53 AM 33.1 °F 25.5 °F 30.0 °F 89% 29.99 in 10.0 mi SW 9.2 mph - N/A   Clear
3:53 AM 33.1 °F 24.4 °F 28.9 °F 85% 29.98 in 10.0 mi WSW 11.5 mph - N/A   Clear
5:53 AM 32.0 °F 22.5 °F 27.0 °F 82% 29.99 in 10.0 mi WSW 12.7 mph - N/A   Clear
7:53 AM 34.0 °F 25.0 °F 28.0 °F 79% 30.01 in 10.0 mi WSW 12.7 mph - N/A   Mostly Cloudy
8:53 AM 35.1 °F 24.8 °F 27.0 °F 72% 30.01 in 10.0 mi West 17.3 mph - N/A   Overcast
9:53 AM 37.0 °F 27.7 °F 28.9 °F 73% 30.00 in 10.0 mi WSW 16.1 mph - N/A   Overcast
10:33 AM 37.4 °F 27.8 °F 28.4 °F 70% 29.98 in 10.0 mi West 17.3 mph 23.0 mph N/A   Mostly Cloudy
10:44 AM 37.4 °F 27.5 °F 26.6 °F 65% 29.98 in 10.0 mi West 18.4 mph 28.8 mph N/A   Mostly Cloudy
10:53 AM 37.0 °F 27.7 °F 28.0 °F 70% 30.00 in 10.0 mi West 16.1 mph 27.6 mph N/A   Mostly Cloudy
11:53 AM 37.0 °F 27.7 °F 27.0 °F 67% 29.99 in 10.0 mi West 16.1 mph - N/A   Overcast
12:53 PM 37.0 °F 26.4 °F 27.0 °F 67% 29.99 in 10.0 mi West 20.7 mph 26.5 mph N/A   Overcast
1:53 PM 39.0 °F 31.0 °F 28.9 °F 67% 29.98 in 10.0 mi West 13.8 mph 23.0 mph N/A   Overcast
2:53 PM 37.9 °F 30.9 °F 28.9 °F 70% 29.98 in 10.0 mi WSW 10.4 mph - N/A   Overcast
3:53 PM 37.9 °F 28.9 °F 28.0 °F 68% 29.99 in 10.0 mi West 16.1 mph - N/A   Mostly Cloudy
4:53 PM 33.1 °F 24.9 °F 30.9 °F 92% 30.01 in 10.0 mi West 10.4 mph - 0.00 in   Partly Cloudy
5:53 PM 35.1 °F 25.9 °F 30.9 °F 85% 30.02 in 10.0 mi West 13.8 mph - N/A   Overcast
6:53 PM 35.1 °F 25.5 °F 32.0 °F 89% 30.02 in 10.0 mi West 15.0 mph - N/A   Overcast
7:53 PM 35.1 °F 25.2 °F 30.9 °F 85% 30.02 in 10.0 mi West 16.1 mph - N/A   Overcast
8:53 PM 34.0 °F 26.0 °F 30.0 °F 85% 30.04 in 10.0 mi West 10.4 mph - N/A   Mostly Cloudy
9:53 PM 32.0 °F 23.6 °F 28.9 °F 88% 30.05 in 10.0 mi West 10.4 mph - N/A   Clear
10:53 PM 32.0 °F 23.0 °F 28.9 °F 88% 30.04 in 10.0 mi West 11.5 mph - N/A   Clear